Location: Lakeview Terrace
(41.4931°N, 81.7101°W)
Time: 20:09:52
(UTC+00:00)

Cosmos 1340 - Pass Details

Date: 29 October 2020
Orbit: 501 x 504 km, 81.2° (Epoch: 03 December)

Event Time Altitude Azimuth Distance (km) Brightness Sun altitude
Rises 23:41:14 0° 345° (NNW) 2,615 6.4 -14.8°
Reaches altitude 10° 23:43:24 10° 341° (NNW) 1,726 5.5 -15.2°
Maximum altitude 23:47:06 53° 264° (W) 625 3.5 -15.9°
Drops below altitude 10° 23:50:46 10° 187° (S) 1,712 5.5 -16.6°
Sets 23:52:54 0° 182° (S) 2,591 6.3 -17.0°
